Overview Statistics Trail Chart Weather Telemetry Raw packets
 

This is the latest recevied weather packets stored in our database for station/object 4S6DRJ-13. If no packets are shown the sender has not sent any weather packets the latest 10 day(s).

<< 382 383 384 385 386 387 388 >>
Time Temp. Humidity Pressure Rain* Wind** Luminosity Snow
1787887143 28.89° C 81% 1010.9 hPa 0 mm 0.89 m/s, 207° 227 W/m² -
1787887082 28.89° C 81% 1011 hPa 0 mm 1.34 m/s, 233° 188 W/m² -
1787887021 28.89° C 81% 1011 hPa 0 mm 0.89 m/s, 301° 154 W/m² -
1787886959 29.44° C 80% 1011.1 hPa 0 mm 0.45 m/s, 200° 142 W/m² -
1787886899 29.44° C 80% 1011.1 hPa 0 mm 1.79 m/s, 269° 123 W/m² -
1787886838 29.44° C 80% 1011.1 hPa 0 mm 0.89 m/s, 223° 139 W/m² -
1787886776 29.44° C 80% 1011 hPa 0 mm 3.58 m/s, 211° 188 W/m² -
1787886715 29.44° C 81% 1010.9 hPa 0 mm 0.89 m/s, 226° 424 W/m² -
1787886655 28.89° C 81% 1010.9 hPa 0 mm 0.45 m/s, 192° 385 W/m² -
1787886594 28.89° C 81% 1010.9 hPa 0 mm 0.45 m/s, 227° 441 W/m² -
1787886533 28.89° C 81% 1011 hPa 0 mm 1.34 m/s, 243° 325 W/m² -
1787886472 28.89° C 81% 1010.9 hPa 0 mm 0.89 m/s, 232° 308 W/m² -
1787886410 28.89° C 81% 1010.9 hPa 0 mm 1.34 m/s, 263° 602 W/m² -
1787886350 28.89° C 82% 1010.8 hPa 0 mm 1.79 m/s, 226° 300 W/m² -
1787886288 28.89° C 82% 1010.9 hPa 0 mm 0.89 m/s, 255° 242 W/m² -
1787886227 28.89° C 82% 1010.8 hPa 0 mm 2.24 m/s, 174° 255 W/m² -
1787886167 28.89° C 82% 1010.9 hPa 0 mm 1.34 m/s, 276° 309 W/m² -
1787886105 28.89° C 82% 1011 hPa 0 mm 2.24 m/s, 251° 346 W/m² -
1787886045 28.89° C 82% 1010.9 hPa 0 mm 2.24 m/s, 228° 318 W/m² -
1787885984 28.89° C 82% 1011 hPa 0 mm 2.24 m/s, 249° 274 W/m² -
1787885922 28.89° C 81% 1011 hPa 0 mm 2.24 m/s, 175° 248 W/m² -
1787885862 28.89° C 81% 1011 hPa 0 mm 0.89 m/s, 273° 236 W/m² -
1787885801 28.89° C 81% 1010.8 hPa 0 mm 2.68 m/s, 210° 247 W/m² -
1787885739 28.89° C 82% 1010.9 hPa 0 mm 1.34 m/s, 103° 298 W/m² -
1787885678 28.89° C 82% 1010.7 hPa 0 mm 0.89 m/s, 221° 386 W/m² -

* Rain latest hour (hover to see other rain measurements)
** Current wind speed in m/s (hover to see current wind gust speed)